Time,TemperatureF,DewpointF,PressureIn,WindDirection,WindDirectionDegrees,WindSpeedMPH,WindSpeedGustMPH,Humidity,HourlyPrecipIn,Conditions,Clouds,dailyrainin,SoftwareType,DateUTC
2013-02-23 00:31:00,-11.0,-14.0,29.50,SW,224,0.0,0.0,85,0.00,,,0.00,,2013-02-23 09:31:00,
2013-02-23 00:41:00,-11.0,-14.0,29.50,SW,224,0.0,0.0,85,0.00,,,0.00,,2013-02-23 09:41:00,
2013-02-23 00:52:00,-11.0,-14.0,29.49,SW,223,0.0,0.0,85,0.00,,,0.00,,2013-02-23 09:52:00,
2013-02-23 01:01:00,-10.0,-13.0,29.49,SW,224,0.0,0.0,85,0.00,,,0.00,,2013-02-23 10:01:00,
2013-02-23 01:11:00,-10.0,-13.0,29.49,SW,224,0.0,0.0,85,0.00,,,0.00,,2013-02-23 10:11:00,
2013-02-23 01:21:00,-10.0,-13.0,29.48,WSW,248,0.0,1.0,85,0.00,,,0.00,,2013-02-23 10:21:00,
2013-02-23 01:31:00,-10.0,-14.0,29.48,WSW,249,0.0,1.0,83,0.00,,,0.00,,2013-02-23 10:31:00,
2013-02-23 01:41:00,-10.0,-14.0,29.48,WSW,249,0.0,1.0,83,0.00,,,0.00,,2013-02-23 10:41:00,
2013-02-23 01:52:00,-10.0,-13.0,29.47,WSW,250,0.0,1.0,84,0.00,,,0.00,,2013-02-23 10:52:00,
2013-02-23 02:01:00,-10.0,-13.0,29.47,WSW,250,0.0,1.0,84,0.00,,,0.00,,2013-02-23 11:01:00,
2013-02-23 02:11:00,-10.0,-13.0,29.47,WSW,250,0.0,1.0,84,0.00,,,0.00,,2013-02-23 11:11:00,
2013-02-23 02:21:00,-10.0,-14.0,29.46,WSW,253,0.0,1.0,83,0.00,,,0.00,,2013-02-23 11:21:00,
2013-02-23 02:32:00,-10.0,-14.0,29.46,WSW,253,0.0,1.0,83,0.00,,,0.00,,2013-02-23 11:32:00,
2013-02-23 02:42:00,-10.0,-14.0,29.46,WSW,253,0.0,1.0,83,0.00,,,0.00,,2013-02-23 11:42:00,
2013-02-23 05:21:00,-9.0,-13.0,29.40,West,265,0.0,1.0,82,0.00,,,0.00,,2013-02-23 14:21:00,
2013-02-23 05:32:00,-10.0,-14.0,29.38,West,265,0.0,2.0,81,0.00,,,0.00,,2013-02-23 14:32:00,
2013-02-23 05:41:00,-10.0,-14.0,29.38,West,265,0.0,2.0,81,0.00,,,0.00,,2013-02-23 14:41:00,
2013-02-23 05:52:00,-10.0,-14.0,29.39,West,265,0.0,1.0,82,0.00,,,0.00,,2013-02-23 14:52:00,
2013-02-23 06:01:00,-10.0,-14.0,29.39,West,265,0.0,1.0,82,0.00,,,0.00,,2013-02-23 15:01:00,
2013-02-23 06:11:00,-10.0,-14.0,29.39,West,265,0.0,1.0,82,0.00,,,0.00,,2013-02-23 15:11:00,
2013-02-23 06:21:00,-10.0,-14.0,29.38,West,265,0.0,1.0,83,0.00,,,0.00,,2013-02-23 15:21:00,
2013-02-23 08:31:00,-8.0,-12.0,29.36,WNW,300,0.0,1.0,81,0.00,,,0.00,,2013-02-23 17:31:00,
2013-02-23 08:42:00,-8.0,-12.0,29.36,WNW,300,0.0,1.0,81,0.00,,,0.00,,2013-02-23 17:42:00,
2013-02-23 08:52:00,-8.0,-12.0,29.35,NW,311,0.0,1.0,82,0.00,,,0.00,,2013-02-23 17:52:00,
2013-02-23 09:01:00,-8.0,-12.0,29.36,WNW,286,0.0,2.0,82,0.00,,,0.00,,2013-02-23 18:01:00,
2013-02-23 09:12:00,-8.0,-12.0,29.36,WNW,286,0.0,2.0,82,0.00,,,0.00,,2013-02-23 18:12:00,
2013-02-23 09:21:00,-8.0,-12.0,29.36,West,281,0.0,2.0,82,0.00,,,0.00,,2013-02-23 18:21:00,
2013-02-23 09:31:00,-8.0,-12.0,29.36,WNW,284,0.0,3.0,82,0.00,,,0.00,,2013-02-23 18:31:00,
2013-02-23 09:41:00,-8.0,-12.0,29.36,WNW,284,0.0,3.0,82,0.00,,,0.00,,2013-02-23 18:41:00,
2013-02-23 09:51:00,-8.0,-12.0,29.36,WNW,284,0.0,3.0,82,0.00,,,0.00,,2013-02-23 18:51:00,
2013-02-23 10:01:00,-8.0,-12.0,29.36,WNW,284,0.0,3.0,82,0.00,,,0.00,,2013-02-23 19:01:00,
2013-02-23 10:21:00,-7.0,-11.0,29.35,West,278,0.0,2.0,81,0.00,,,0.00,,2013-02-23 19:21:00,
2013-02-23 10:32:00,-6.0,-10.0,29.35,West,272,1.0,3.0,81,0.00,,,0.00,,2013-02-23 19:32:00,
2013-02-23 10:41:00,-6.0,-10.0,29.35,West,272,1.0,3.0,81,0.00,,,0.00,,2013-02-23 19:41:00,
2013-02-23 10:51:00,-6.0,-10.0,29.35,West,272,1.0,3.0,81,0.00,,,0.00,,2013-02-23 19:51:00,
2013-02-23 11:01:00,-4.0,-9.0,29.34,WNW,284,1.0,3.0,79,0.00,,,0.00,,2013-02-23 20:01:00,
2013-02-23 11:11:00,-4.0,-9.0,29.34,WNW,284,1.0,3.0,79,0.00,,,0.00,,2013-02-23 20:11:00,
2013-02-23 11:21:00,-4.0,-9.0,29.34,West,279,1.0,3.0,80,0.00,,,0.00,,2013-02-23 20:21:00,
2013-02-23 11:31:00,-4.0,-9.0,29.34,West,279,1.0,3.0,80,0.00,,,0.00,,2013-02-23 20:31:00,
2013-02-23 11:41:00,-4.0,-9.0,29.34,West,279,1.0,3.0,80,0.00,,,0.00,,2013-02-23 20:41:00,
2013-02-23 11:52:00,-2.0,-7.0,29.34,West,281,1.0,5.0,78,0.00,,,0.00,,2013-02-23 20:52:00,
2013-02-23 12:01:00,-2.0,-7.0,29.34,West,281,1.0,5.0,78,0.00,,,0.00,,2013-02-23 21:01:00,
2013-02-23 12:11:00,-2.0,-7.0,29.34,West,281,1.0,5.0,78,0.00,,,0.00,,2013-02-23 21:11:00,
2013-02-23 12:22:00,-1.0,-6.0,29.34,West,271,1.0,4.0,77,0.00,,,0.00,,2013-02-23 21:22:00,
2013-02-23 12:31:00,-1.0,-6.0,29.34,West,275,0.0,2.0,78,0.00,,,0.00,,2013-02-23 21:31:00,
2013-02-23 12:41:00,-1.0,-6.0,29.34,West,275,0.0,2.0,78,0.00,,,0.00,,2013-02-23 21:41:00,
2013-02-23 12:51:00,-1.0,-6.0,29.34,West,277,0.0,3.0,80,0.00,,,0.00,,2013-02-23 21:51:00,
2013-02-23 13:01:00,0.0,-5.0,29.33,West,277,0.0,3.0,79,0.00,,,0.00,,2013-02-23 22:01:00,
2013-02-23 13:11:00,0.0,-5.0,29.33,West,277,0.0,3.0,79,0.00,,,0.00,,2013-02-23 22:11:00,
2013-02-23 13:21:00,0.0,-5.0,29.33,WNW,296,0.0,3.0,79,0.00,,,0.00,,2013-02-23 22:21:00,
2013-02-23 13:31:00,0.0,-5.0,29.33,WNW,290,1.0,2.0,79,0.00,,,0.00,,2013-02-23 22:31:00,
2013-02-23 13:41:00,0.0,-5.0,29.33,WNW,290,1.0,2.0,79,0.00,,,0.00,,2013-02-23 22:41:00,
2013-02-23 13:51:00,1.0,-4.0,29.33,WNW,286,0.0,3.0,80,0.00,,,0.00,,2013-02-23 22:51:00,
2013-02-23 14:01:00,1.0,-4.0,29.33,WNW,287,0.0,2.0,79,0.00,,,0.00,,2013-02-23 23:01:00,
2013-02-23 14:11:00,1.0,-4.0,29.33,WNW,287,0.0,2.0,79,0.00,,,0.00,,2013-02-23 23:11:00,
2013-02-23 14:21:00,2.0,-3.0,29.32,West,281,0.0,3.0,79,0.00,,,0.00,,2013-02-23 23:21:00,
2013-02-23 14:31:00,2.0,-3.0,29.32,WNW,287,1.0,3.0,79,0.00,,,0.00,,2013-02-23 23:31:00,
2013-02-23 14:41:00,2.0,-3.0,29.32,WNW,287,1.0,3.0,79,0.00,,,0.00,,2013-02-23 23:41:00,
2013-02-23 14:52:00,2.0,-3.0,29.31,West,280,1.0,2.0,79,0.00,,,0.00,,2013-02-23 23:52:00,
2013-02-23 15:01:00,2.0,-3.0,29.30,WNW,284,0.0,3.0,80,0.00,,,0.00,,2013-02-24 00:01:00,
2013-02-23 15:11:00,2.0,-3.0,29.30,WNW,284,0.0,3.0,80,0.00,,,0.00,,2013-02-24 00:11:00,
2013-02-23 15:22:00,3.0,-2.0,29.30,WNW,287,0.0,4.0,79,0.00,,,0.00,,2013-02-24 00:22:00,
2013-02-23 15:31:00,3.0,-2.0,29.30,West,279,0.0,3.0,78,0.00,,,0.00,,2013-02-24 00:31:00,
2013-02-23 15:42:00,3.0,-2.0,29.30,West,279,0.0,3.0,78,0.00,,,0.00,,2013-02-24 00:42:00,
2013-02-23 15:52:00,3.0,-1.0,29.30,West,276,0.0,3.0,82,0.00,,,0.00,,2013-02-24 00:52:00,
2013-02-23 16:01:00,3.0,-2.0,29.30,West,277,0.0,2.0,79,0.00,,,0.00,,2013-02-24 01:01:00,
2013-02-23 16:11:00,3.0,-2.0,29.30,West,277,0.0,2.0,79,0.00,,,0.00,,2013-02-24 01:11:00,
2013-02-23 16:22:00,3.0,-2.0,29.29,West,279,0.0,3.0,80,0.00,,,0.00,,2013-02-24 01:22:00,
2013-02-23 16:31:00,3.0,-1.0,29.29,West,280,0.0,2.0,81,0.00,,,0.00,,2013-02-24 01:31:00,
2013-02-23 16:41:00,3.0,-1.0,29.29,West,280,0.0,2.0,81,0.00,,,0.00,,2013-02-24 01:41:00,
2013-02-23 16:51:00,3.0,-1.0,29.29,West,280,0.0,2.0,81,0.00,,,0.00,,2013-02-24 01:51:00,
2013-02-23 17:01:00,3.0,-1.0,29.28,West,280,0.0,2.0,81,0.00,,,0.00,,2013-02-24 02:01:00,
2013-02-23 17:11:00,3.0,-1.0,29.28,West,280,0.0,2.0,81,0.00,,,0.00,,2013-02-24 02:11:00,
2013-02-23 17:21:00,3.0,-1.0,29.28,West,280,0.0,2.0,82,0.00,,,0.00,,2013-02-24 02:21:00,
2013-02-23 17:31:00,3.0,-1.0,29.28,West,280,0.0,2.0,82,0.00,,,0.00,,2013-02-24 02:31:00,
2013-02-23 17:41:00,3.0,-1.0,29.28,West,280,0.0,2.0,82,0.00,,,0.00,,2013-02-24 02:41:00,
2013-02-23 17:52:00,3.0,-1.0,29.28,West,280,0.0,2.0,82,0.00,,,0.00,,2013-02-24 02:52:00,
2013-02-23 18:01:00,2.0,-2.0,29.28,West,280,0.0,2.0,83,0.00,,,0.00,,2013-02-24 03:01:00,
2013-02-23 18:11:00,2.0,-2.0,29.28,West,280,0.0,2.0,83,0.00,,,0.00,,2013-02-24 03:11:00,
2013-02-23 18:21:00,2.0,-2.0,29.28,West,280,0.0,2.0,83,0.00,,,0.00,,2013-02-24 03:21:00,
2013-02-23 18:31:00,2.0,-2.0,29.28,West,280,0.0,2.0,83,0.00,,,0.00,,2013-02-24 03:31:00,
2013-02-23 18:42:00,2.0,-2.0,29.28,West,280,0.0,2.0,83,0.00,,,0.00,,2013-02-24 03:42:00,
2013-02-23 18:52:00,2.0,-2.0,29.27,West,280,0.0,2.0,84,0.00,,,0.00,,2013-02-24 03:52:00,
2013-02-23 19:01:00,2.0,-2.0,29.28,West,280,0.0,2.0,84,0.00,,,0.00,,2013-02-24 04:01:00,
2013-02-23 19:11:00,2.0,-2.0,29.28,West,280,0.0,2.0,84,0.00,,,0.00,,2013-02-24 04:11:00,
2013-02-23 19:21:00,2.0,-2.0,29.28,West,280,0.0,1.0,84,0.00,,,0.00,,2013-02-24 04:21:00,
2013-02-23 19:31:00,1.0,-3.0,29.28,West,280,0.0,2.0,83,0.00,,,0.00,,2013-02-24 04:31:00,
2013-02-23 19:41:00,1.0,-3.0,29.28,West,280,0.0,2.0,83,0.00,,,0.00,,2013-02-24 04:41:00,
2013-02-23 19:51:00,1.0,-3.0,29.28,West,280,0.0,1.0,83,0.00,,,0.00,,2013-02-24 04:51:00,
2013-02-23 20:01:00,1.0,-3.0,29.27,West,280,0.0,1.0,84,0.00,,,0.00,,2013-02-24 05:01:00,
2013-02-23 20:11:00,1.0,-3.0,29.27,West,280,0.0,1.0,84,0.00,,,0.00,,2013-02-24 05:11:00,
2013-02-23 20:21:00,1.0,-3.0,29.27,West,280,0.0,1.0,84,0.00,,,0.00,,2013-02-24 05:21:00,
2013-02-23 20:32:00,1.0,-3.0,29.27,West,280,0.0,1.0,84,0.00,,,0.00,,2013-02-24 05:32:00,
2013-02-23 20:41:00,1.0,-3.0,29.27,West,280,0.0,1.0,84,0.00,,,0.00,,2013-02-24 05:41:00,
2013-02-23 20:52:00,1.0,-3.0,29.27,West,280,0.0,2.0,84,0.00,,,0.00,,2013-02-24 05:52:00,
2013-02-23 21:01:00,1.0,-3.0,29.27,West,280,0.0,1.0,84,0.00,,,0.00,,2013-02-24 06:01:00,
2013-02-23 21:11:00,1.0,-3.0,29.27,West,280,0.0,1.0,84,0.00,,,0.00,,2013-02-24 06:11:00,
2013-02-23 21:21:00,1.0,-3.0,29.28,West,280,0.0,1.0,83,0.00,,,0.00,,2013-02-24 06:21:00,
2013-02-23 21:31:00,1.0,-3.0,29.28,West,280,0.0,1.0,84,0.00,,,0.00,,2013-02-24 06:31:00,
2013-02-23 21:41:00,1.0,-3.0,29.28,West,280,0.0,1.0,84,0.00,,,0.00,,2013-02-24 06:41:00,
2013-02-23 21:52:00,1.0,-3.0,29.28,West,280,0.0,1.0,83,0.00,,,0.00,,2013-02-24 06:52:00,
2013-02-23 22:01:00,1.0,-3.0,29.28,West,280,0.0,1.0,84,0.00,,,0.00,,2013-02-24 07:01:00,
2013-02-23 22:11:00,1.0,-3.0,29.28,West,280,0.0,1.0,84,0.00,,,0.00,,2013-02-24 07:11:00,
2013-02-23 22:21:00,1.0,-3.0,29.28,West,280,0.0,1.0,84,0.00,,,0.00,,2013-02-24 07:21:00,
2013-02-23 22:31:00,0.0,-4.0,29.28,West,280,0.0,2.0,84,0.00,,,0.00,,2013-02-24 07:31:00,
2013-02-23 22:41:00,0.0,-4.0,29.28,West,280,0.0,2.0,84,0.00,,,0.00,,2013-02-24 07:41:00,
2013-02-23 22:51:00,0.0,-4.0,29.28,West,280,0.0,2.0,84,0.00,,,0.00,,2013-02-24 07:51:00,
2013-02-23 23:01:00,0.0,-4.0,29.28,West,280,0.0,2.0,84,0.00,,,0.00,,2013-02-24 08:01:00,
2013-02-23 23:11:00,0.0,-4.0,29.28,West,280,0.0,2.0,84,0.00,,,0.00,,2013-02-24 08:11:00,
2013-02-23 23:22:00,0.0,-4.0,29.29,West,280,0.0,2.0,84,0.00,,,0.00,,2013-02-24 08:22:00,
2013-02-23 23:31:00,0.0,-4.0,29.29,West,280,1.0,2.0,84,0.00,,,0.00,,2013-02-24 08:31:00,
2013-02-23 23:41:00,0.0,-4.0,29.29,West,280,1.0,2.0,84,0.00,,,0.00,,2013-02-24 08:41:00,
2013-02-23 23:53:00,0.0,-4.0,29.29,West,280,0.0,2.0,84,0.00,,,0.00,,2013-02-24 08:53:00,